Flag for Germany Weather past 2 weeks in Schwäbisch Hall, Baden-Württemberg, Germany

Now
37 °F

Light rain. Overcast.


Feels Like: 32 °F
Forecast: 28 / 48 °F
Wind: 7 mph from Southwest

Location: Oehringen

Current Time: Apr 2, 2015 at 9:04:31 AM

Latest Report: Apr 2, 2015 at 8:00 AM


Visibility: 4 mi

Pressure: 29.93 "Hg

Humidity: 93%

Dew point: 35 °F

Location of Schwäbisch HallLocation

Historic Weather in Schwäbisch Hall — Graph

°F

Schwäbisch Hall temperature yesterday

Maximum temperature yesterday: 46 °F (at 3:00 PM)
Minimum temperature yesterday: 36 °F (at 1:00 AM)
Average temperature yesterday: 40 °F

Past Weeks' High & Low Weather Summary

 TemperatureHumidityPressure
High64 °F (Mar 25, 2:00 PM)97% (Mar 28, 10:00 PM)30.30 "Hg (Mar 28, 10:00 PM)
Low30 °F (Mar 24, 6:00 AM)33% (Mar 19, 4:00 PM)29.47 "Hg (Mar 30, 12:00 AM)
Average46 °F70%29.97 "Hg
* Reported Mar 18 7:00 AM — Apr 2 8:00 AM, Schwäbisch Hall, Weather by CustomWeather, © 2015

Note: Actual official high and low records may vary slightly from our data, if they occured in-between our weather recording intervals... More about our weather records

Advertising

Schwäbisch Hall weather history for previous 24 hours

 ConditionsComfort  
Time TempWeatherWind HumidityBarometerVisibility
8:00 AM
Thu, Apr 2
37 °FLight rain. Overcast.7 mph93%29.93 "Hg4 mi
7:00 AM37 °FLight rain. Overcast.9 mph92%29.97 "Hg2 mi
6:00 AM39 °FLight rain. Overcast.10 mph82%29.99 "Hg6 mi
5:00 AM41 °FLight rain. Overcast.10 mph67%30.02 "Hg10 mi
4:00 AM42 °FOvercast.8 mph63%30.06 "Hg28 mi
3:00 AM42 °FOvercast.8 mph65%30.10 "Hg22 mi
2:00 AM42 °FOvercast.7 mph65%30.12 "Hg22 mi
1:00 AM42 °FOvercast.6 mph66%30.15 "Hg19 mi
12:00 AM40 °FPassing clouds.7 mph67%30.16 "Hg22 mi
11:00 PM
Wed, Apr 1
40 °FPassing clouds.7 mph67%30.18 "Hg22 mi
10:00 PM39 °FPassing clouds.7 mph72%30.18 "Hg19 mi
9:00 PM40 °FPassing clouds.6 mph72%30.17 "Hg22 mi
8:00 PM39 °FPassing clouds.7 mph78%30.16 "Hg19 mi
7:00 PM38 °FLight rain. Overcast.6 mph85%30.16 "Hg10 mi
6:00 PM37 °FOvercast.8 mph86%30.14 "Hg18 mi
5:00 PM45 °FOvercast.12 mph58%30.11 "Hg19 mi
4:00 PM46 °FOvercast.10 mph54%30.10 "Hg31 mi
3:00 PM46 °FPartly sunny.9 mph57%30.11 "Hg34 mi
2:00 PM42 °FOvercast.10 mph64%30.13 "Hg25 mi
1:00 PM43 °FOvercast.9 mph59%30.13 "Hg28 mi
12:00 PM41 °FLight rain. Overcast.10 mph64%30.12 "Hg28 mi
11:00 AM40 °FOvercast.9 mph62%30.11 "Hg31 mi
10:00 AM39 °FOvercast.9 mph74%30.09 "Hg25 mi
9:00 AM39 °FPartly sunny.7 mph75%30.06 "Hg22 mi
Weather by CustomWeather, © 2015

See weather overviewHow to use our weather pages